Hill City, KS

12:17 AM CDT on April 29, 2017 (GMT -0500)
Hill City Municipal

Weather History for KHLC - May, 2012

Change the Weather History Date:

Thursday, May 10, 2012

  Actual Average Record
Temperature  
Mean Temperature 69 °F 60 °F  
Max Temperature 89 °F 74 °F 96 °F (1914)
Min Temperature 49 °F 48 °F 30 °F (1981)
Cooling Degree Days 4    
Growing Degree Days 20 (Base 50)    
Moisture  
Dew Point 41 °F    
Average Humidity 26    
Maximum Humidity 40    
Minimum Humidity 16    
Precipitation  
Precipitation 0.00 in 0.12 in 0.13 in (2003)
Month to date precipitation 0.00 1.14  
Year to date precipitation 3.87 5.86  
Sea Level Pressure  
Sea Level Pressure 29.76 in    
Wind  
Wind Speed 10 mph (SSW)    
Max Wind Speed 18 mph    
Max Gust Speed 28 mph    
Visibility 10 miles    
Events      
T = Trace of Precipitation, MM = Missing Value Source: NWS Daily Summary

Daily Weather History Graph

Daily Weather History Graph

Search for Another Location

Airport or City:

Trip Planner

Search our weather history database for the weather conditions in past years. The results will help you decide how hot, cold, wet, or windy it might be!

Date:

Astronomy

May. 10, 2012 Rise Set
Actual Time 6:29 AM CDT 8:42 PM CDT
Civil Twilight 6:00 AM CDT 9:12 PM CDT
Nautical Twilight 5:23 AM CDT 9:48 PM CDT
Astronomical Twilight 4:43 AM CDT 10:29 PM CDT
Moon 12:41 AM CDT (5/10) 10:56 AM CDT (5/10)
Length of Visible Light 15h 12m
Length of Day
14h 12m
Waning Gibbous, 73% of the Moon is Illuminated
May 10
Waning Gibbous
May 12
Last Quarter
May 20
New
May 28
First Quarter
Jun 4
Full

Hourly Weather History & Observations

Time (CDT) Temp. Dew Point Humidity Pressure Visibility Wind Dir Wind Speed Gust Speed Precip Events Conditions
12:53 AM 59.0 °F - N/A% 29.84 in 10.0 mi South 9.2 mph - N/A   Clear
1:53 AM 55.9 °F - N/A% 29.84 in 10.0 mi SSW 5.8 mph - N/A   Clear
2:53 AM 53.1 °F - N/A% 29.83 in 10.0 mi SW 6.9 mph - N/A   Clear
3:53 AM 55.0 °F - N/A% 29.82 in 10.0 mi SW 10.4 mph - N/A   Clear
4:53 AM 55.9 °F - N/A% 29.81 in 10.0 mi SW 6.9 mph - N/A   Clear
5:53 AM 52.0 °F - N/A% 29.80 in 10.0 mi SW 5.8 mph - N/A   Clear
6:53 AM 51.1 °F - N/A% 29.79 in 10.0 mi WNW 3.5 mph - N/A   Clear
7:53 AM 59.0 °F - N/A% 29.80 in 10.0 mi SSW 8.1 mph - N/A   Clear
8:53 AM 64.9 °F - N/A% 29.80 in 10.0 mi SW 12.7 mph - N/A   Clear
9:53 AM 70.0 °F 43.0 °F 38% 29.79 in 10.0 mi SSW 9.2 mph - N/A   Clear
10:53 AM 75.9 °F 44.1 °F 32% 29.77 in 10.0 mi South 8.1 mph - N/A   Clear
11:53 AM 82.0 °F 43.0 °F 25% 29.75 in 10.0 mi South 13.8 mph 18.4 mph N/A   Clear
12:53 PM 86.0 °F 37.9 °F 18% 29.73 in 10.0 mi South 12.7 mph 21.9 mph N/A   Clear
1:53 PM 86.0 °F 37.9 °F 18% 29.71 in 10.0 mi South 15.0 mph 26.5 mph N/A   Clear
2:53 PM 88.0 °F 37.0 °F 16% 29.69 in 10.0 mi SSW 18.4 mph 25.3 mph N/A   Clear
3:53 PM 88.0 °F 37.9 °F 17% 29.68 in 10.0 mi SSW 13.8 mph 27.6 mph N/A   Clear
4:53 PM 88.0 °F 37.9 °F 17% 29.67 in 10.0 mi SSW 12.7 mph 24.2 mph N/A   Clear
5:53 PM 87.1 °F 37.9 °F 18% 29.67 in 10.0 mi South 12.7 mph 20.7 mph N/A   Clear
6:53 PM 84.0 °F 39.9 °F 21% 29.68 in 10.0 mi South 15.0 mph 24.2 mph N/A   Clear
7:53 PM 81.0 °F 42.1 °F 25% 29.69 in 10.0 mi South 16.1 mph 27.6 mph N/A   Clear
8:53 PM 75.9 °F 42.1 °F 30% 29.71 in 10.0 mi South 16.1 mph 21.9 mph N/A   Clear
9:53 PM 72.0 °F 42.1 °F 34% 29.74 in 10.0 mi South 11.5 mph - N/A   Clear
10:53 PM 69.1 °F 43.0 °F 39% 29.76 in 10.0 mi South 11.5 mph 24.2 mph N/A   Clear
11:53 PM 66.9 °F 42.1 °F 40% 29.77 in 10.0 mi South 12.7 mph 18.4 mph N/A   Clear